Location: *
(50.6089°N, 2.2719°E)
Time: 07:25:32
(UTC+00:00)

STARLINK-55 - Pass Details

Date: 18 October 2019
Orbit: 548 x 551 km, 53.0° (Epoch: 13 November)

Event Time Altitude Azimuth Distance (km) Brightness Sun altitude
Rises 17:53:01 0° 254° (WSW) 2,712 9.0 -10.2°
Reaches altitude 10° 17:55:15 10° 256° (WSW) 1,821 7.7 -10.5°
Maximum altitude 17:59:23 80° 344° (NNW) 563 3.7 -11.2°
Enters shadow 18:02:38 16° 70° (ENE) 1,472 5.2 -11.7°
